6hr Temperature Data

Temp.
(°C)
Wind Chill
(°C)
Dew Point
(°C)
Solar Hours
(hh:mm)
Solar Radiation
(w/m2)
Min
14.7 13.6 9.5 00:10 0.0
Max
15.5 15 12.4 00:10 18.0
Range
0.8 1.4 2.9 n/a 18
Mode
15.3 14.7 10.1 00:10 4.0
Median
15.3 14.5 10.9 00:10 4.0
Mean
15.2 14.4 10.8 n/a 6.2
Std. Dev
0.8 0.8 1 n/a 4.7
Temp.
(°C)
Wind Chill
(°C)
Dew Point
(°C)
Solar Hours
(hh:mm)
Solar Radiation
(w/m2)
23/09 21:52 14.7 14 12.4 00:10 4.0
23/09 21:51 14.7 13.9 12.4 00:10 4.0
23/09 21:50 14.7 13.9 12.4 00:10 4.0
23/09 21:49 14.7 13.9 12.4 00:10 4.0
23/09 21:48 14.7 13.9 12.4 00:10 4.0
23/09 21:47 14.7 13.9 12.4 00:10 4.0
23/09 21:46 14.7 13.9 12.4 00:10 4.0
23/09 21:45 14.7 13.9 12.4 00:10 4.0
23/09 21:44 14.7 13.8 12.4 00:10 4.0
23/09 21:43 14.7 13.8 12.4 00:10 0.0
23/09 21:42 14.7 13.8 12.4 00:10 4.0
23/09 21:41 14.7 13.8 12.4 00:10 4.0
23/09 21:40 14.7 13.9 12.4 00:10 4.0
23/09 21:39 14.7 13.9 12.4 00:10 4.0
23/09 21:38 14.7 13.8 12.2 00:10 4.0
23/09 21:37 14.7 13.8 12.2 00:10 4.0
23/09 21:36 14.7 13.8 12.2 00:10 4.0
23/09 21:35 14.7 13.8 12.2 00:10 4.0
23/09 21:34 14.7 13.8 12.2 00:10 4.0
23/09 21:33 14.7 13.8 12.2 00:10 4.0
23/09 21:32 14.7 13.8 12.2 00:10 4.0
23/09 21:31 14.7 13.8 12.2 00:10 4.0
23/09 21:30 14.7 13.8 12.2 00:10 0.0
23/09 21:29 14.7 13.8 12 00:10 4.0
23/09 21:28 14.7 13.8 12 00:10 0.0
23/09 21:27 14.7 13.8 12 00:10 4.0
23/09 21:26 14.7 13.8 12 00:10 4.0
23/09 21:25 14.7 13.9 12 00:10 4.0
23/09 21:24 14.7 13.9 12 00:10 4.0
23/09 21:23 14.8 14 12.1 00:10 4.0
23/09 21:22 14.8 13.9 12.1 00:10 4.0
23/09 21:21 14.8 13.9 12.1 00:10 4.0
23/09 21:20 14.8 13.9 12.1 00:10 4.0
23/09 21:19 14.8 13.9 12.1 00:10 4.0
23/09 21:18 14.8 13.9 11.9 00:10 0.0
23/09 21:17 14.8 13.8 11.9 00:10 4.0
23/09 21:16 14.8 13.8 11.9 00:10 4.0
23/09 21:15 14.8 13.8 11.9 00:10 4.0
23/09 21:14 14.8 13.9 11.9 00:10 4.0
23/09 21:13 14.8 13.8 11.9 00:10 4.0
23/09 21:12 14.8 13.9 11.9 00:10 4.0
23/09 21:11 14.8 13.9 11.7 00:10 4.0
23/09 21:10 14.9 14.1 11.8 00:10 4.0
23/09 21:09 14.9 14.1 11.8 00:10 4.0
23/09 21:08 14.9 14.1 11.8 00:10 4.0
23/09 21:07 14.9 14.2 11.8 00:10 4.0
23/09 21:06 14.9 14.2 11.6 00:10 4.0
23/09 21:05 15.0 14.3 11.7 00:10 4.0
23/09 21:04 15.0 14.3 11.7 00:10 4.0
23/09 21:03 15.0 14.3 11.7 00:10 4.0
23/09 21:02 15.0 14.3 11.7 00:10 4.0
23/09 21:01 15.0 14.2 11.7 00:10 4.0
23/09 21:00 15.0 14.2 11.7 00:10 0.0
23/09 20:59 15.0 14.2 11.7 00:10 4.0
23/09 20:58 15.0 14.2 11.5 00:10 0.0
23/09 20:57 15.0 14.2 11.5 00:10 4.0
23/09 20:56 15.1 14.3 11.6 00:10 4.0
23/09 20:55 15.1 14.2 11.6 00:10 4.0
23/09 20:54 15.1 14.2 11.6 00:10 4.0
23/09 20:53 15.1 14.2 11.5 00:10 4.0
23/09 20:52 15.2 14.4 11.6 00:10 4.0
23/09 20:51 15.2 14.4 11.6 00:10 4.0
23/09 20:50 15.2 14.4 11.4 00:10 4.0
23/09 20:49 15.2 14.4 11.4 00:10 4.0
23/09 20:48 15.3 14.5 11.5 00:10 4.0
23/09 20:47 15.3 14.6 11.5 00:10 4.0
23/09 20:46 15.3 14.6 11.5 00:10 4.0
23/09 20:45 15.3 14.6 11.3 00:10 4.0
23/09 20:44 15.4 14.7 11.4 00:10 4.0
23/09 20:43 15.4 14.7 11.4 00:10 4.0
23/09 20:42 15.4 14.7 11.4 00:10 4.0
23/09 20:41 15.4 14.8 11.4 00:10 4.0
23/09 20:40 15.4 14.8 11.4 00:10 4.0
23/09 20:39 15.4 14.8 11.2 00:10 4.0
23/09 20:38 15.4 14.8 11.2 00:10 0.0
23/09 20:37 15.5 14.9 11.3 00:10 4.0
23/09 20:36 15.5 14.8 11.3 00:10 4.0
23/09 20:35 15.5 14.8 11.3 00:10 4.0
23/09 20:34 15.5 14.8 11.3 00:10 4.0
23/09 20:33 15.5 14.8 11.3 00:10 4.0
23/09 20:32 15.5 14.8 11.3 00:10 4.0
23/09 20:31 15.5 14.9 11.1 00:10 4.0
23/09 20:30 15.5 14.9 11.1 00:10 4.0
23/09 20:29 15.5 14.9 11.1 00:10 4.0
23/09 20:28 15.5 14.9 11.1 00:10 0.0
23/09 20:27 15.5 14.9 11.1 00:10 4.0
23/09 20:26 15.5 14.9 11.1 00:10 4.0
23/09 20:25 15.5 14.9 11.1 00:10 4.0
23/09 20:24 15.5 14.9 11.3 00:10 4.0
23/09 20:23 15.5 15 11.3 00:10 4.0
23/09 20:22 15.5 14.9 11.3 00:10 4.0
23/09 20:21 15.5 14.9 11.3 00:10 4.0
23/09 20:20 15.4 14.8 11.2 00:10 4.0
23/09 20:19 15.4 14.8 11.2 00:10 4.0
23/09 20:18 15.4 14.8 11.2 00:10 4.0
23/09 20:17 15.4 14.8 11.2 00:10 4.0
23/09 20:16 15.4 14.8 11.2 00:10 4.0
23/09 20:15 15.4 14.8 11.2 00:10 0.0
23/09 20:14 15.4 14.7 11.2 00:10 4.0
23/09 20:13 15.4 14.7 11.2 00:10 4.0
23/09 20:12 15.4 14.7 11.2 00:10 4.0
23/09 20:11 15.4 14.7 11.2 00:10 4.0
23/09 20:10 15.4 14.7 11.2 00:10 4.0
23/09 20:09 15.5 14.7 11.3 00:10 4.0
23/09 20:08 15.5 14.7 11.1 00:10 4.0
23/09 20:07 15.5 14.7 11.1 00:10 4.0
23/09 20:06 15.5 14.7 11.1 00:10 4.0
23/09 20:05 15.5 14.7 11.1 00:10 4.0
23/09 20:04 15.5 14.7 11.1 00:10 4.0
23/09 20:03 15.5 14.7 11.1 00:10 4.0
23/09 20:02 15.5 14.7 11.1 00:10 4.0
23/09 20:01 15.5 14.7 11.1 00:10 4.0
23/09 20:00 15.5 14.7 11.1 00:10 4.0
23/09 19:59 15.5 14.7 11.1 00:10 4.0
23/09 19:58 15.5 14.7 11.1 00:10 4.0
23/09 19:57 15.5 14.8 11.1 00:10 4.0
23/09 19:56 15.5 14.8 11.1 00:10 4.0
23/09 19:55 15.4 14.7 11 00:10 0.0
23/09 19:54 15.4 14.7 11 00:10 4.0
23/09 19:53 15.4 14.7 11 00:10 4.0
23/09 19:52 15.4 14.7 11 00:10 4.0
23/09 19:51 15.4 14.7 11 00:10 4.0
23/09 19:50 15.4 14.7 11 00:10 4.0
23/09 19:49 15.4 14.7 11 00:10 4.0
23/09 19:48 15.4 14.7 11 00:10 4.0
23/09 19:47 15.4 14.8 11 00:10 4.0
23/09 19:46 15.4 14.7 11 00:10 4.0
23/09 19:45 15.4 14.8 11 00:10 0.0
23/09 19:44 15.4 14.8 11 00:10 4.0
23/09 19:43 15.4 14.8 11 00:10 4.0
23/09 19:42 15.4 14.8 11 00:10 4.0
23/09 19:41 15.4 14.8 11 00:10 4.0
23/09 19:40 15.4 14.8 11 00:10 4.0
23/09 19:39 15.3 14.7 10.9 00:10 4.0
23/09 19:38 15.3 14.6 10.9 00:10 4.0
23/09 19:37 15.3 14.6 10.9 00:10 4.0
23/09 19:36 15.3 14.5 10.9 00:10 4.0
23/09 19:35 15.3 14.5 10.9 00:10 4.0
23/09 19:34 15.3 14.5 10.9 00:10 4.0
23/09 19:33 15.3 14.4 10.9 00:10 4.0
23/09 19:32 15.3 14.4 10.9 00:10 0.0
23/09 19:31 15.3 14.4 10.9 00:10 0.0
23/09 19:30 15.3 14.4 10.9 00:10 0.0
23/09 19:29 15.3 14.4 10.9 00:10 4.0
23/09 19:28 15.3 14.4 10.9 00:10 4.0
23/09 19:27 15.3 14.4 10.9 00:10 4.0
23/09 19:26 15.3 14.5 10.9 00:10 4.0
23/09 19:25 15.3 14.5 10.9 00:10 4.0
23/09 19:24 15.3 14.5 10.9 00:10 4.0
23/09 19:23 15.3 14.6 10.9 00:10 4.0
23/09 19:22 15.2 14.5 10.8 00:10 4.0
23/09 19:21 15.2 14.5 11 00:10 4.0
23/09 19:20 15.2 14.5 11 00:10 4.0
23/09 19:19 15.2 14.5 11 00:10 4.0
23/09 19:18 15.2 14.5 11 00:10 4.0
23/09 19:17 15.2 14.5 11 00:10 4.0
23/09 19:16 15.1 14.3 10.9 00:10 4.0
23/09 19:15 15.2 14.5 11 00:10 4.0
23/09 19:14 15.1 14.3 10.9 00:10 4.0
23/09 19:13 15.1 14.3 10.9 00:10 0.0
23/09 19:12 15.1 14.3 11.1 00:10 4.0
23/09 19:11 15.1 14.3 11.1 00:10 4.0
23/09 19:10 15.1 14.3 11.1 00:10 4.0
23/09 19:09 15.1 14.3 11.1 00:10 4.0
23/09 19:08 15.1 14.3 11.1 00:10 4.0
23/09 19:07 15.0 14.2 11 00:10 4.0
23/09 19:06 15.0 14.2 11 00:10 4.0
23/09 19:05 15.0 14.1 11 00:10 4.0
23/09 19:04 15.0 14.1 11 00:10 4.0
23/09 19:03 15.0 14.1 11 00:10 4.0
23/09 19:02 15.0 14.1 11.2 00:10 4.0
23/09 19:01 14.9 13.9 11.1 00:10 0.0
23/09 19:00 14.9 13.9 11.1 00:10 4.0
23/09 18:59 14.9 13.8 11.1 00:10 4.0
23/09 18:58 14.9 13.8 11.1 00:10 0.0
23/09 18:57 14.9 13.8 11.1 00:10 4.0
23/09 18:56 14.9 13.8 11.1 00:10 4.0
23/09 18:55 14.9 13.7 11.1 00:10 4.0
23/09 18:54 14.9 13.7 11.3 00:10 4.0
23/09 18:53 14.8 13.6 11.2 00:10 4.0
23/09 18:52 14.8 13.7 11.2 00:10 4.0
23/09 18:51 14.8 13.6 11.2 00:10 4.0
23/09 18:50 14.8 13.6 11.2 00:10 4.0
23/09 18:49 14.8 13.7 11.2 00:10 0.0
23/09 18:48 14.8 13.6 11.2 00:10 4.0
23/09 18:47 14.8 13.6 11.2 00:10 4.0
23/09 18:46 14.8 13.7 11.2 00:10 4.0
23/09 18:45 14.8 13.6 11.2 00:10 4.0
23/09 18:44 14.8 13.6 11.2 00:10 4.0
23/09 18:43 14.8 13.7 11.2 00:10 4.0
23/09 18:42 14.8 13.7 11.2 00:10 4.0
23/09 18:41 14.8 13.7 11 00:10 4.0
23/09 18:40 14.8 13.7 11 00:10 0.0
23/09 18:39 14.9 13.9 11.1 00:10 4.0
23/09 18:38 14.9 13.9 11.1 00:10 4.0
23/09 18:37 14.9 13.9 11.1 00:10 4.0
23/09 18:36 14.9 13.9 10.9 00:10 4.0
23/09 18:35 14.9 14 10.9 00:10 4.0
23/09 18:34 14.9 14 10.9 00:10 4.0
23/09 18:33 14.9 14 10.9 00:10 4.0
23/09 18:32 14.9 14.1 10.9 00:10 0.0
23/09 18:31 14.9 14.1 10.7 00:10 0.0
23/09 18:30 15.0 14.2 10.8 00:10 0.0
23/09 18:29 15.0 14.2 10.8 00:10 0.0
23/09 18:28 15.0 14.1 10.8 00:10 0.0
23/09 18:27 15.0 14.2 10.6 00:10 0.0
23/09 18:26 15.1 14.3 10.7 00:10 0.0
23/09 18:25 15.1 14.3 10.7 00:10 4.0
23/09 18:24 15.1 14.2 10.7 00:10 4.0
23/09 18:23 15.1 14.2 10.5 00:10 4.0
23/09 18:22 15.2 14.4 10.6 00:10 4.0
23/09 18:21 15.2 14.4 10.6 00:10 4.0
23/09 18:20 15.2 14.4 10.4 00:10 4.0
23/09 18:19 15.2 14.4 10.4 00:10 4.0
23/09 18:18 15.2 14.4 10.4 00:10 4.0
23/09 18:17 15.2 14.5 10.4 00:10 4.0
23/09 18:16 15.3 14.7 10.4 00:10 0.0
23/09 18:15 15.3 14.7 10.2 00:10 4.0
23/09 18:14 15.3 14.8 10.2 00:10 4.0
23/09 18:13 15.3 14.8 10.2 00:10 4.0
23/09 18:12 15.3 14.9 10.2 00:10 4.0
23/09 18:11 15.3 14.9 10.2 00:10 4.0
23/09 18:10 15.3 14.9 10.2 00:10 4.0
23/09 18:09 15.3 14.9 10.2 00:10 4.0
23/09 18:08 15.3 14.9 10.2 00:10 0.0
23/09 18:07 15.3 14.9 10.2 00:10 0.0
23/09 18:06 15.3 14.9 10.2 00:10 0.0
23/09 18:05 15.3 14.9 10.2 00:10 0.0
23/09 18:04 15.3 14.9 10.2 00:10 0.0
23/09 18:03 15.3 14.9 10.2 00:10 4.0
23/09 18:02 15.3 14.8 10 00:10 0.0
23/09 18:01 15.3 14.7 10 00:10 0.0
23/09 18:00 15.3 14.7 10 00:10 0.0
23/09 17:59 15.3 14.8 10 00:10 0.0
23/09 17:58 15.2 14.7 10.1 00:10 0.0
23/09 17:57 15.2 14.7 10.1 00:10 0.0
23/09 17:56 15.2 14.7 10.1 00:10 0.0
23/09 17:55 15.2 14.6 10.1 00:10 4.0
23/09 17:54 15.2 14.6 10.1 00:10 4.0
23/09 17:53 15.2 14.5 10.1 00:10 4.0
23/09 17:52 15.2 14.5 10.1 00:10 4.0
23/09 17:51 15.2 14.5 10.1 00:10 4.0
23/09 17:50 15.2 14.5 10.1 00:10 4.0
23/09 17:49 15.2 14.4 10.1 00:10 4.0
23/09 17:48 15.2 14.4 10.1 00:10 6.0
23/09 17:47 15.2 14.3 10.1 00:10 6.0
23/09 17:46 15.2 14.2 10.1 00:10 6.0
23/09 17:45 15.2 14.2 10.1 00:10 6.0
23/09 17:44 15.2 14.2 10.1 00:10 6.0
23/09 17:43 15.2 14.1 10.1 00:10 6.0
23/09 17:42 15.2 14.1 10.1 00:10 8.0
23/09 17:41 15.2 14.1 10.1 00:10 8.0
23/09 17:40 15.2 14.1 10.1 00:10 8.0
23/09 17:39 15.2 14.1 10.1 00:10 8.0
23/09 17:38 15.2 14.1 10.1 00:10 8.0
23/09 17:37 15.2 14.1 10.1 00:10 8.0
23/09 17:36 15.2 14.1 10.1 00:10 8.0
23/09 17:35 15.2 14.1 10.1 00:10 10.0
23/09 17:34 15.2 14.1 10.1 00:10 10.0
23/09 17:33 15.2 14.1 10.1 00:10 10.0
23/09 17:32 15.2 14.1 10.1 00:10 10.0
23/09 17:31 15.2 14.2 10.1 00:10 10.0
23/09 17:30 15.2 14.2 10.1 00:10 10.0
23/09 17:29 15.2 14.2 10.1 00:10 10.0
23/09 17:28 15.2 14.2 10.1 00:10 10.0
23/09 17:27 15.2 14.2 10.1 00:10 10.0
23/09 17:26 15.2 14.2 10.1 00:10 10.0
23/09 17:25 15.2 14.3 10.1 00:10 10.0
23/09 17:24 15.2 14.3 10.1 00:10 10.0
23/09 17:23 15.2 14.3 10.1 00:10 10.0
23/09 17:22 15.2 14.3 10.1 00:10 10.0
23/09 17:21 15.2 14.4 10.1 00:10 10.0
23/09 17:20 15.2 14.4 10.1 00:10 10.0
23/09 17:19 15.2 14.4 10.1 00:10 10.0
23/09 17:18 15.3 14.5 10 00:10 10.0
23/09 17:17 15.3 14.6 10.2 00:10 10.0
23/09 17:16 15.3 14.6 10.2 00:10 10.0
23/09 17:15 15.3 14.6 10.2 00:10 10.0
23/09 17:14 15.3 14.6 10.2 00:10 10.0
23/09 17:13 15.3 14.6 10.2 00:10 10.0
23/09 17:12 15.3 14.6 10.2 00:10 10.0
23/09 17:11 15.3 14.7 10.2 00:10 10.0
23/09 17:10 15.3 14.7 10.2 00:10 10.0
23/09 17:09 15.3 14.7 10.2 00:10 10.0
23/09 17:08 15.3 14.7 10.2 00:10 10.0
23/09 17:07 15.3 14.7 10.2 00:10 10.0
23/09 17:06 15.3 14.7 10.2 00:10 10.0
23/09 17:05 15.3 14.7 10.2 00:10 8.0
23/09 17:04 15.3 14.7 10.2 00:10 10.0
23/09 17:03 15.3 14.8 10.2 00:10 10.0
23/09 17:02 15.3 14.8 10.2 00:10 10.0
23/09 17:01 15.3 14.8 10 00:10 10.0
23/09 17:00 15.3 14.8 10 00:10 12.0
23/09 16:59 15.3 14.7 10 00:10 12.0
23/09 16:58 15.3 14.7 10 00:10 12.0
23/09 16:57 15.3 14.8 10 00:10 12.0
23/09 16:56 15.3 14.8 10 00:10 12.0
23/09 16:55 15.3 14.7 10 00:10 12.0
23/09 16:54 15.3 14.7 10 00:10 12.0
23/09 16:50 15.3 14.7 9.8 00:10 12.0
23/09 16:49 15.3 14.7 9.8 00:10 12.0
23/09 16:48 15.3 14.8 9.8 00:10 12.0
23/09 16:47 15.3 14.8 9.8 00:10 12.0
23/09 16:46 15.4 14.9 9.9 00:10 12.0
23/09 16:45 15.4 14.8 9.9 00:10 12.0
23/09 16:44 15.4 14.8 9.9 00:10 12.0
23/09 16:43 15.4 14.8 9.9 00:10 10.0
23/09 16:42 15.4 14.8 9.9 00:10 10.0
23/09 16:41 15.4 14.7 9.9 00:10 10.0
23/09 16:40 15.4 14.7 9.9 00:10 10.0
23/09 16:39 15.4 14.7 9.9 00:10 10.0
23/09 16:38 15.4 14.7 9.9 00:10 10.0
23/09 16:37 15.4 14.7 9.9 00:10 10.0
23/09 16:36 15.4 14.8 9.7 00:10 10.0
23/09 16:35 15.4 14.8 9.7 00:10 10.0
23/09 16:34 15.4 14.8 9.7 00:10 10.0
23/09 16:33 15.4 14.8 9.7 00:10 10.0
23/09 16:32 15.4 14.9 9.7 00:10 12.0
23/09 16:31 15.4 14.9 9.7 00:10 12.0
23/09 16:30 15.4 14.9 9.7 00:10 12.0
23/09 16:29 15.4 14.9 9.7 00:10 12.0
23/09 16:28 15.4 14.9 9.7 00:10 12.0
23/09 16:27 15.4 15 9.7 00:10 12.0
23/09 16:26 15.4 14.9 9.7 00:10 14.0
23/09 16:25 15.4 14.9 9.7 00:10 14.0
23/09 16:24 15.4 14.8 9.7 00:10 14.0
23/09 16:23 15.4 14.9 9.5 00:10 14.0
23/09 16:22 15.4 14.9 9.5 00:10 14.0
23/09 16:21 15.4 14.9 9.5 00:10 14.0
23/09 16:20 15.4 14.8 9.5 00:10 14.0
23/09 16:19 15.4 14.8 9.5 00:10 14.0
23/09 16:18 15.4 14.7 9.5 00:10 16.0
23/09 16:17 15.4 14.6 9.7 00:10 16.0
23/09 16:16 15.4 14.5 9.7 00:10 16.0
23/09 16:15 15.4 14.5 9.7 00:10 16.0
23/09 16:14 15.3 14.4 9.6 00:10 18.0
23/09 16:13 15.3 14.4 9.6 00:10 18.0
23/09 16:12 15.3 14.4 9.8 00:10 18.0
23/09 16:11 15.3 14.3 9.8 00:10 18.0
23/09 16:10 15.3 14.3 9.8 00:10 18.0
23/09 16:09 15.3 14.3 9.8 00:10 18.0
23/09 16:08 15.4 14.5 9.9 00:10 18.0
23/09 16:07 15.3 14.4 9.8 00:10 18.0
23/09 16:06 15.3 14.4 9.8 00:10 18.0
23/09 16:05 15.3 14.4 9.8 00:10 18.0
23/09 16:04 15.3 14.5 9.8 00:10 18.0
23/09 16:03 15.3 14.4 9.8 00:10 18.0
23/09 16:02 15.3 14.4 9.8 00:10 16.0
23/09 16:01 15.3 14.5 10 00:10 16.0
23/09 16:00 15.3 14.4 10 00:10 16.0
23/09 15:59 15.3 14.4 10 00:10 16.0
23/09 15:58 15.3 14.4 10 00:10 16.0
23/09 15:57 15.3 14.4 10 00:10 18.0
23/09 15:56 15.3 14.4 10 00:10 18.0
23/09 15:55 15.3 14.4 10 00:10 18.0
23/09 15:54 15.3 14.4 10 00:10 18.0
23/09 15:53 15.3 14.5 10.2 00:10 18.0
23/09 15:52 15.3 14.4 10.2 00:10 18.0
23/09 15:51 15.4 14.6 10.3 00:10 18.0
23/09 15:50 15.4 14.6 10.3 00:10 16.0
23/09 15:49 15.4 14.6 10.3 00:10 16.0



    Load Time 0.086791 seconds